Location: Radomski Observatory
(40.2854°N, 79.5145°W)
Time: 13:28:03
(UTC-04:00)

Cosmos 1072 Rocket - Visible Passes

Search period start: 19 April 2014 00:00
Search period end: 29 April 2014 00:00
Orbit: 949 x 1009 km, 82.9° (Epoch: 18 April)

Date Brightness Start Highest point End Pass type
(mag) Time Alt. Az. Time Alt. Az. Time Alt. Az.
19 Apr 5.9 02:03:39 29° ENE 02:03:39 29° ENE 02:07:35 10° NNE visible
19 Apr 5.4 03:48:23 33° WNW 03:48:23 33° WNW 03:53:08 10° N visible
20 Apr 5.2 02:29:57 48° NE 02:29:57 48° NE 02:34:30 10° NNE visible
20 Apr 6.0 04:14:41 19° WNW 04:14:41 19° WNW 04:18:38 10° NNW visible
21 Apr 6.7 01:11:30 15° ENE 01:11:30 15° ENE 01:13:35 10° NE visible
21 Apr 4.9 02:56:14 54° NNW 02:56:14 54° NNW 03:01:00 10° N visible
22 Apr 6.1 01:37:46 26° ENE 01:37:46 26° ENE 01:41:24 10° NNE visible
22 Apr 5.4 03:22:31 36° NW 03:22:31 36° NW 03:27:09 10° N visible
23 Apr 5.4 02:04:02 43° NE 02:04:02 43° NE 02:08:23 10° NNE visible
23 Apr 6.0 03:48:46 21° WNW 03:48:46 21° WNW 03:52:47 10° NNW visible
24 Apr 6.7 00:45:34 13° ENE 00:45:34 13° ENE 00:47:06 10° NE visible
24 Apr 5.0 02:30:18 53° N 02:30:18 53° N 02:34:57 10° N visible
24 Apr 6.5 04:15:02 11° WNW 04:15:17 11° WNW 04:16:45 10° NW visible
25 Apr 6.1 01:11:48 24° ENE 01:11:48 24° ENE 01:15:11 10° NNE visible
25 Apr 5.3 02:56:32 38° NW 02:56:32 38° NW 03:01:10 10° N visible
26 Apr 5.5 01:38:02 40° NE 01:38:02 40° NE 01:42:16 10° NNE visible
26 Apr 5.9 03:22:46 23° WNW 03:22:46 23° WNW 03:26:55 10° NNW visible
27 Apr 6.8 00:19:32 12° ENE 00:19:32 12° ENE 00:20:31 10° ENE visible
27 Apr 5.0 02:04:16 53° N 02:04:16 53° N 02:08:54 10° N visible
27 Apr 6.5 03:48:59 12° WNW 03:49:05 12° WNW 03:51:30 10° NW visible
28 Apr 6.2 00:45:44 22° ENE 00:45:44 22° ENE 00:48:58 10° NNE visible
28 Apr 5.3 02:30:28 42° NW 02:30:28 42° NW 02:35:10 10° N visible
